Location: Consuma
(43.7833°N, 11.5833°E)
Time: 09:25:13
(UTC+00:00)

Cosmos 2173 Rocket - Pass Details

Date: 17 February 2020
Orbit: 944 x 1001 km, 83.0° (Epoch: 27 March)

Event Time Altitude Azimuth Distance (km) Brightness Sun altitude
Rises 04:41:33 0° 352° (N) 3,716 6.9 -16.7°
Reaches altitude 10° 04:44:06 10° 352° (N) 2,757 6.3 -16.2°
Maximum altitude 04:50:26 88° 80° (E) 985 4.0 -15.1°
Drops below altitude 10° 04:56:39 10° 173° (S) 2,698 6.5 -14.0°
Sets 04:59:07 0° 174° (S) 3,633 7.1 -13.5°
